Location: Głubczyce
(50.2020°N, 17.8242°E)
Time: 22:22:13
(UTC+01:00)

ISS - Visible Passes

Search period start: 19 January 2018 00:00
Search period end: 29 January 2018 00:00
Orbit: 402 x 407 km, 51.6° (Epoch: 20 January)

Date Brightness Start Highest point End Pass type
(mag) Time Alt. Az. Time Alt. Az. Time Alt. Az.
26 Jan -1.6 18:55:01 10° SSW 18:56:11 19° SSW 18:56:11 19° SSW visible
27 Jan -2.2 18:03:14 10° SSW 18:05:42 20° SE 18:06:11 20° SE visible
27 Jan -0.5 19:38:33 10° WSW 19:38:51 12° WSW 19:38:51 12° WSW visible
28 Jan -1.5 17:12:02 10° SSE 17:13:33 13° SE 17:15:03 10° ESE visible
28 Jan -3.0 18:46:16 10° SW 18:48:46 43° SSW 18:48:46 43° SSW visible
